CW9455 Weather Reports


Display with metric or nautical units.
time (UTC)temp
F
wind
direction
speed
MPH
gust
MPH
rain 1hr
in
rain 24hr
in
rain mn
in
humidity
%
barometer
mb
20260506192224 59 240 14.0 26.0 0.00 0.00 0.00 65 1007.5
20260506191725 59 239 13.0 24.0 0.00 0.00 0.00 65 1007.5
20260506191225 59 261 13.0 25.0 0.00 0.00 0.00 65 1007.5
20260506190725 59 247 12.0 25.0 0.00 0.00 0.00 65 1007.6
20260506190444 59 215 13.0 21.0 0.00 0.00 0.00 66 1007.5
20260506185726 59 250 14.0 29.0 0.00 0.00 0.00 66 1007.8
20260506185224 59 246 14.0 29.0 0.00 0.00 0.00 66 1007.6
20260506184724 58 233 14.0 28.0 0.00 0.00 0.00 66 1007.6
20260506184225 58 225 15.0 27.0 0.00 0.00 0.00 66 1007.7
20260506183725 58 272 15.0 25.0 0.00 0.00 0.00 65 1007.9
20260506183226 59 218 16.0 26.0 0.00 0.00 0.00 65 1007.9
20260506182721 59 226 15.0 26.0 0.00 0.00 0.00 65 1008.0
20260506182221 59 245 15.0 26.0 0.00 0.00 0.00 65 1008.2
20260506181721 59 256 14.0 26.0 0.00 0.00 0.00 64 1008.2
20260506181221 59 253 13.0 26.0 0.00 0.00 0.00 64 1008.2
20260506180720 59 226 14.0 26.0 0.00 0.00 0.00 64 1008.4
20260506180446 59 214 16.0 27.0 0.00 0.00 0.00 63 1008.4
20260506175721 60 230 15.0 27.0 0.00 0.00 0.00 63 1008.6
20260506175221 60 267 14.0 26.0 0.00 0.00 0.00 62 1008.7
20260506174945 60 240 16.0 30.0 0.00 0.00 0.00 62 1008.8
20260506174219 60 250 18.0 30.0 0.00 0.00 0.00 61 1008.8
20260506173718 60 223 18.0 30.0 0.00 0.00 0.00 61 1008.8
20260506173223 61 213 18.0 31.0 0.00 0.00 0.00 61 1008.8
20260506172719 61 260 17.0 31.0 0.00 0.00 0.00 61 1008.8
20260506172219 61 263 17.0 29.0 0.00 0.00 0.00 61 1008.8
20260506171718 61 263 18.0 37.0 0.00 0.00 0.00 61 1008.8
20260506171704 61 230 17.0 37.0 0.00 0.00 0.00 61 1008.9
20260506170953 61 265 16.0 33.0 0.00 0.00 0.00 61 1008.8
20260506170218 61 227 17.0 29.0 0.00 0.00 0.00 61 1009.1
20260506165719 61 263 18.0 29.0 0.00 0.00 0.00 61 1009.0
20260506165212 61 219 18.0 37.0 0.00 0.00 0.00 61 1009.2
20260506164713 61 259 18.0 37.0 0.00 0.00 0.00 61 1009.2
20260506164212 61 240 19.0 33.0 0.00 0.00 0.00 61 1009.1
20260506163931 61 229 18.0 31.0 0.00 0.00 0.00 61 1009.0
20260506163212 61 294 17.0 30.0 0.00 0.00 0.00 61 1009.2
20260506162710 61 253 17.0 31.0 0.00 0.00 0.00 61 1009.1
20260506162211 61 249 17.0 32.0 0.00 0.00 0.00 61 1009.2
20260506161710 62 246 17.0 32.0 0.00 0.00 0.00 60 1009.2
20260506161208 62 248 18.0 31.0 0.00 0.00 0.00 60 1009.4
20260506160709 62 291 18.0 32.0 0.00 0.00 0.00 61 1009.5
20260506160428 61 233 18.0 36.0 0.00 0.00 0.00 61 1009.6
20260506155709 61 256 18.0 36.0 0.00 0.00 0.00 61 1009.7
20260506155648 61 244 18.0 36.0 0.00 0.00 0.00 61 1009.7
20260506154708 61 242 18.0 36.0 0.00 0.00 0.00 61 1009.7
20260506154208 61 228 18.0 31.0 0.00 0.00 0.00 61 1009.6
20260506153710 61 253 18.0 30.0 0.00 0.00 0.00 61 1009.7
20260506153209 61 261 18.0 37.0 0.00 0.00 0.00 60 1009.6
20260506152703 62 241 18.0 37.0 0.00 0.00 0.00 60 1009.6
20260506152156 62 231 20.0 33.0 0.00 0.00 0.00 60 1009.5
20260506151651 62 260 20.0 39.0 0.00 0.00 0.00 60 1009.6
20260506151145 62 244 18.0 33.0 0.00 0.00 0.00 59 1010.0
20260506150640 63 244 17.0 32.0 0.00 0.00 0.00 59 1009.5
20260506150133 63 244 16.0 29.0 0.00 0.00 0.00 59 1009.6
20260506145627 63 254 17.0 32.0 0.00 0.00 0.00 59 1009.7
20260506145120 63 256 17.0 32.0 0.00 0.00 0.00 59 1009.7
20260506144615 62 242 17.0 30.0 0.00 0.00 0.00 59 1009.6
20260506144109 62 248 16.0 37.0 0.00 0.00 0.00 60 1009.8
20260506143603 62 302 16.0 37.0 0.00 0.00 0.00 59 1009.7
20260506143057 62 240 16.0 33.0 0.00 0.00 0.00 60 1010.0
20260506142550 62 344 16.0 33.0 0.00 0.00 0.00 60 1010.1
20260506142045 62 229 17.0 31.0 0.00 0.00 0.00 60 1010.1
20260506141539 61 233 18.0 34.0 0.00 0.00 0.00 60 1010.0
20260506141032 61 256 18.0 34.0 0.00 0.00 0.00 60 1010.0
20260506140527 61 249 18.0 32.0 0.00 0.00 0.00 60 1009.9
20260506140021 61 217 18.0 31.0 0.00 0.00 0.00 60 1009.9
20260506135515 61 240 18.0 32.0 0.00 0.00 0.00 60 1009.8
20260506135008 61 248 17.0 32.0 0.00 0.00 0.00 60 1009.8
20260506134503 62 241 17.0 30.0 0.00 0.00 0.00 60 1009.6
20260506133958 62 209 17.0 31.0 0.00 0.00 0.00 60 1009.8
20260506133450 61 252 17.0 31.0 0.00 0.00 0.00 60 1009.9
20260506132945 61 225 17.0 30.0 0.00 0.00 0.00 60 1009.9
20260506132707 61 230 14.0 25.0 0.00 0.00 0.00 61 1009.7
20260506132206 61 224 14.0 28.0 0.00 0.00 0.00 60 1009.6
20260506131427 61 259 15.0 28.0 0.00 0.00 0.00 60 1009.9
20260506130921 61 237 15.0 28.0 0.00 0.00 0.00 60 1010.0
20260506130635 61 227 14.0 26.0 0.00 0.00 0.00 60 1010.1
20260506130134 61 262 15.0 29.0 0.00 0.00 0.00 61 1010.2
20260506125403 61 237 16.0 32.0 0.00 0.00 0.00 61 1010.2
20260506125117 61 259 15.0 32.0 0.00 0.00 0.00 61 1010.0
20260506124352 61 255 15.0 30.0 0.00 0.00 0.00 61 1010.1
20260506123845 61 239 15.0 30.0 0.00 0.00 0.00 61 1010.1
20260506123339 61 264 14.0 28.0 0.00 0.00 0.00 61 1010.2
20260506123055 61 244 15.0 27.0 0.00 0.00 0.00 62 1010.2
20260506122327 60 245 16.0 31.0 0.00 0.00 0.00 62 1010.1
20260506121821 60 259 15.0 31.0 0.00 0.00 0.00 62 1009.9
20260506121315 60 273 16.0 30.0 0.00 0.00 0.00 63 1010.0
20260506120809 60 259 17.0 30.0 0.00 0.00 0.00 63 1010.1
20260506120303 60 232 16.0 28.0 0.00 0.00 0.00 63 1010.1
20260506115759 60 221 16.0 31.0 0.00 0.00 0.00 63 1010.1
20260506115251 60 238 16.0 31.0 0.00 0.00 0.00 63 1010.1
20260506114746 59 246 15.0 31.0 0.00 0.00 0.00 63 1010.0
20260506114239 59 256 15.0 31.0 0.00 0.00 0.00 64 1010.1
20260506113734 59 207 14.0 29.0 0.00 0.00 0.00 64 1010.1
20260506113227 59 266 14.0 29.0 0.00 0.00 0.00 64 1010.0
20260506112948 59 245 14.0 25.0 0.00 0.00 0.00 64 1010.2
20260506112215 59 250 14.0 24.0 0.00 0.00 0.00 64 1010.2
20260506111933 59 237 15.0 25.0 0.00 0.00 0.00 64 1010.1
20260506111428 59 245 15.0 26.0 0.00 0.00 0.00 64 1010.2
20260506110657 58 263 15.0 26.0 0.00 0.00 0.00 65 1010.2
20260506110157 58 246 16.0 28.0 0.00 0.00 0.00 65 1010.1
20260506105658 58 248 16.0 28.0 0.00 0.00 0.00 65 1010.1
20260506105157 58 234 15.0 26.0 0.00 0.00 0.00 65 1010.2
20260506104654 58 242 15.0 28.0 0.00 0.00 0.00 65 1010.1
20260506104153 58 252 16.0 28.0 0.00 0.00 0.00 65 1010.1
20260506103655 58 244 14.0 27.0 0.00 0.00 0.00 65 1010.2
20260506103154 58 249 15.0 27.0 0.00 0.00 0.00 65 1010.1
20260506102653 58 241 15.0 28.0 0.00 0.00 0.00 65 1010.0
20260506102154 58 235 16.0 31.0 0.00 0.00 0.00 65 1010.0
20260506101653 58 228 17.0 31.0 0.00 0.00 0.00 65 1009.8
20260506101154 58 257 16.0 27.0 0.00 0.00 0.00 65 1009.8
20260506100915 58 287 14.0 28.0 0.00 0.00 0.00 65 1009.9
20260506100154 58 248 15.0 31.0 0.00 0.00 0.00 65 1009.8
20260506095914 58 237 15.0 32.0 0.00 0.00 0.00 65 1009.8
20260506095153 58 232 16.0 32.0 0.00 0.00 0.00 65 1009.8
20260506094654 58 256 17.0 31.0 0.00 0.00 0.00 65 1009.8
20260506094155 58 250 17.0 30.0 0.00 0.00 0.00 65 1009.9
20260506093651 58 273 16.0 31.0 0.00 0.00 0.00 65 1009.8
20260506093153 58 249 15.0 31.0 0.00 0.00 0.00 65 1009.9
20260506092651 58 267 15.0 24.0 0.00 0.00 0.00 65 1009.9
20260506092152 58 243 16.0 31.0 0.00 0.00 0.00 65 1009.8
20260506091651 58 237 17.0 31.0 0.00 0.00 0.00 65 1009.9
20260506091634 59 229 17.0 29.0 0.00 0.00 0.00 65 1009.9
20260506090652 59 250 17.0 29.0 0.00 0.00 0.00 65 1010.0
20260506090151 59 257 17.0 29.0 0.00 0.00 0.00 65 1010.0
20260506085651 59 241 17.0 28.0 0.00 0.00 0.00 65 1010.1
20260506085413 59 252 16.0 29.0 0.00 0.00 0.00 65 1010.1
20260506084648 59 233 17.0 29.0 0.00 0.00 0.00 65 1010.1
20260506084415 59 210 16.0 27.0 0.00 0.00 0.00 65 1010.2
20260506083917 59 263 16.0 32.0 0.00 0.00 0.00 65 1010.2
20260506083149 59 263 16.0 32.0 0.00 0.00 0.00 65 1010.1
20260506082648 59 229 15.0 30.0 0.00 0.00 0.00 65 1010.2
20260506082147 59 263 16.0 29.0 0.00 0.00 0.00 65 1010.1
20260506081648 59 220 18.0 29.0 0.00 0.00 0.00 65 1010.2
20260506081148 59 230 17.0 30.0 0.00 0.00 0.00 64 1010.2
20260506080649 59 148 17.0 30.0 0.00 0.00 0.00 64 1010.2
20260506080143 59 240 16.0 30.0 0.00 0.00 0.00 64 1010.2
20260506073144 59 247 16.0 30.0 0.00 0.00 0.00 64 1010.4
20260506072646 59 290 16.0 29.0 0.00 0.00 0.00 64 1010.4
20260506072144 60 223 16.0 28.0 0.00 0.00 0.00 63 1010.3
20260506071645 60 204 17.0 31.0 0.00 0.00 0.00 63 1010.4
20260506071410 60 259 17.0 31.0 0.00 0.00 0.00 63 1010.4
20260506070636 60 229 16.0 30.0 0.00 0.00 0.00 63 1010.3
20260506070131 60 251 17.0 30.0 0.00 0.00 0.00 64 1010.3
20260506062122 60 247 15.0 34.0 0.00 0.00 0.00 64 1010.4
20260506061621 59 279 15.0 29.0 0.00 0.00 0.00 64 1010.3
20260506061121 60 263 17.0 32.0 0.00 0.00 0.00 63 1010.4
20260506060621 60 256 17.0 32.0 0.00 0.00 0.00 63 1010.4
20260506060123 60 265 18.0 31.0 0.00 0.00 0.00 63 1010.4
20260506051052 60 259 17.0 34.0 0.00 0.00 0.00 63 1010.7
20260506050546 60 247 17.0 31.0 0.00 0.00 0.00 63 1010.7
20260506044534 60 296 16.0 34.0 0.00 0.00 0.00 63 1010.8
20260506044034 60 217 15.0 28.0 0.00 0.00 0.00 63 1010.8
20260506043534 60 256 16.0 30.0 0.00 0.00 0.00 63 1010.8
20260506043300 60 244 16.0 30.0 0.00 0.00 0.00 63 1010.9
20260506042753 60 263 16.0 30.0 0.00 0.00 0.00 63 1011.0
20260506042031 60 265 18.0 32.0 0.00 0.00 0.00 63 1010.8
20260506041531 60 268 18.0 32.0 0.00 0.00 0.00 63 1011.0
20260506041249 60 238 16.0 31.0 0.00 0.00 0.00 63 1010.9
20260506040530 60 244 16.0 31.0 0.00 0.00 0.00 62 1010.8
20260506040029 60 226 18.0 34.0 0.00 0.00 0.00 62 1010.8
20260506035530 60 264 17.0 34.0 0.00 0.00 0.00 62 1010.8
20260506035028 60 249 16.0 32.0 0.00 0.00 0.00 62 1010.9
20260506034527 60 238 17.0 31.0 0.00 0.00 0.00 62 1010.8
20260506034029 60 222 16.0 34.0 0.00 0.00 0.00 61 1010.8
20260506033748 60 222 16.0 34.0 0.00 0.00 0.00 61 1010.9
20260506033021 60 258 16.0 34.0 0.00 0.00 0.00 61 1010.8
20260506032736 61 244 17.0 30.0 0.00 0.00 0.00 61 1010.8
20260506032010 61 259 16.0 30.0 0.00 0.00 0.00 61 1010.8
20260506031945 61 242 15.0 32.0 0.00 0.00 0.00 61 1010.7
20260506030958 61 265 14.0 32.0 0.00 0.00 0.00 61 1010.8
20260506030453 60 286 15.0 30.0 0.00 0.00 0.00 61 1010.8
20260506025946 61 257 16.0 30.0 0.00 0.00 0.00 61 1010.8
20260506025702 61 248 15.0 32.0 0.00 0.00 0.00 60 1010.8
20260506024941 61 251 16.0 33.0 0.00 0.00 0.00 60 1010.8
20260506024441 61 246 16.0 33.0 0.00 0.00 0.00 60 1010.8
20260506023939 61 241 15.0 29.0 0.00 0.00 0.00 60 1010.8
20260506023439 61 288 15.0 26.0 0.00 0.00 0.00 60 1010.8
20260506022939 61 266 15.0 28.0 0.00 0.00 0.00 60 1010.6
20260506022439 61 232 16.0 30.0 0.00 0.00 0.00 60 1010.8
20260506021939 61 244 16.0 30.0 0.00 0.00 0.00 59 1010.7
20260506021439 61 242 16.0 27.0 0.00 0.00 0.00 59 1010.6
20260506021205 62 252 17.0 29.0 0.00 0.00 0.00 59 1010.6
20260506020439 62 229 16.0 32.0 0.00 0.00 0.00 58 1010.5
20260506020428 62 274 16.0 32.0 0.00 0.00 0.00 58 1010.5
20260506015439 62 269 16.0 31.0 0.00 0.00 0.00 58 1010.7
20260506015201 62 296 17.0 31.0 0.00 0.00 0.00 58 1010.5
20260506014659 62 245 16.0 30.0 0.00 0.00 0.00 58 1010.5
20260506013939 62 265 15.0 28.0 0.00 0.00 0.00 58 1010.4
20260506013440 61 252 15.0 26.0 0.00 0.00 0.00 58 1010.4
20260506013159 61 251 15.0 29.0 0.00 0.00 0.00 58 1010.4
20260506012428 61 242 15.0 29.0 0.00 0.00 0.00 58 1010.4
20260506012150 61 256 16.0 27.0 0.00 0.00 0.00 58 1010.3
20260506011417 61 226 17.0 36.0 0.00 0.00 0.00 58 1010.3
20260506010909 61 311 16.0 36.0 0.00 0.00 0.00 58 1010.1
20260506010404 61 252 15.0 30.0 0.00 0.00 0.00 58 1010.2
20260506005858 61 279 15.0 29.0 0.00 0.00 0.00 58 1010.2
20260506005353 61 309 15.0 29.0 0.00 0.00 0.00 58 1010.1
20260506004846 61 261 14.0 34.0 0.00 0.00 0.00 58 1010.1
20260506004340 61 259 15.0 34.0 0.00 0.00 0.00 58 1010.0
20260506003834 61 263 15.0 28.0 0.00 0.00 0.00 59 1010.0
20260506003328 61 261 15.0 27.0 0.00 0.00 0.00 59 1009.6
20260506002822 61 260 15.0 27.0 0.00 0.00 0.00 58 1009.6
20260506002537 61 254 15.0 33.0 0.00 0.00 0.00 58 1009.5
20260506001811 61 274 16.0 33.0 0.00 0.00 0.00 58 1009.4
20260506001311 61 336 16.0 28.0 0.00 0.00 0.00 58 1009.3
20260506000811 61 208 16.0 37.0 0.00 0.00 0.00 59 1009.2
20260506000311 61 244 17.0 37.0 0.00 0.00 0.00 59 1009.2
20260506000031 61 225 17.0 33.0 0.00 0.00 0.00 59 1009.1
20260505235311 61 240 16.0 32.0 0.00 0.00 0.00 59 1009.0
20260505234811 60 238 16.0 30.0 0.00 0.00 0.00 59 1009.0
20260505234528 60 249 15.0 31.0 0.00 0.00 0.00 59 1009.0
20260505233810 60 252 17.0 31.0 0.00 0.00 0.00 59 1008.8
20260505233311 60 246 18.0 31.0 0.00 0.00 0.00 59 1008.8
20260505232811 60 234 17.0 29.0 0.00 0.00 0.00 59 1008.8
20260505232313 60 221 16.0 29.0 0.00 0.00 0.00 59 1009.0
20260505231811 61 261 16.0 30.0 0.00 0.00 0.00 59 1008.9
20260505231311 61 244 17.0 30.0 0.00 0.00 0.00 59 1008.9
20260505231032 61 240 17.0 31.0 0.00 0.00 0.00 59 1008.9
20260505230310 61 248 16.0 31.0 0.00 0.00 0.00 59 1008.7
20260505230037 61 253 16.0 32.0 0.00 0.00 0.00 59 1008.7
20260505225306 61 260 17.0 32.0 0.00 0.00 0.00 59 1008.8
20260505224759 61 210 16.0 31.0 0.00 0.00 0.00 59 1008.7
20260505224513 61 248 17.0 35.0 0.00 0.00 0.00 59 1008.6
20260505223748 61 252 17.0 35.0 0.00 0.00 0.00 58 1008.5
20260505223242 61 227 16.0 33.0 0.00 0.00 0.00 58 1008.6
20260505222736 61 255 17.0 32.0 0.00 0.00 0.00 58 1008.6
20260505222233 61 255 17.0 32.0 0.00 0.00 0.00 59 1008.5
20260505221723 61 229 17.0 31.0 0.00 0.00 0.00 59 1008.4
20260505221218 61 230 17.0 31.0 0.00 0.00 0.00 59 1008.4
20260505220712 61 232 16.0 28.0 0.00 0.00 0.00 59 1008.5
20260505220206 61 253 15.0 27.0 0.00 0.00 0.00 59 1008.4
20260505215706 61 252 15.0 32.0 0.00 0.00 0.00 59 1008.4
20260505215205 61 244 16.0 32.0 0.00 0.00 0.00 58 1008.6
20260505214705 61 254 15.0 28.0 0.00 0.00 0.00 59 1008.5
20260505214206 61 257 16.0 34.0 0.00 0.00 0.00 59 1008.5
20260505213705 61 265 16.0 34.0 0.00 0.00 0.00 59 1008.5
20260505213206 61 224 15.0 29.0 0.00 0.00 0.00 58 1008.5
20260505212706 61 223 16.0 28.0 0.00 0.00 0.00 59 1008.4
20260505212205 61 251 17.0 28.0 0.00 0.00 0.00 58 1008.5
20260505211704 61 242 16.0 27.0 0.00 0.00 0.00 58 1008.5
20260505211205 61 184 16.0 27.0 0.00 0.00 0.00 58 1008.4
20260505210709 62 248 15.0 26.0 0.00 0.00 0.00 58 1008.3
20260505210206 62 269 16.0 32.0 0.00 0.00 0.00 57 1008.4
20260505205700 62 249 17.0 32.0 0.00 0.00 0.00 57 1008.5
20260505205202 62 230 16.0 29.0 0.00 0.00 0.00 57 1008.5
20260505205157 63 255 16.0 30.0 0.00 0.00 0.00 57 1008.5
20260505204201 63 258 16.0 30.0 0.00 0.00 0.00 57 1008.3
20260505203700 63 253 16.0 29.0 0.00 0.00 0.00 56 1008.4
20260505203201 63 254 16.0 30.0 0.00 0.00 0.00 56 1008.4
20260505202700 63 240 17.0 30.0 0.00 0.00 0.00 56 1008.5
20260505202201 64 274 16.0 29.0 0.00 0.00 0.00 56 1008.7
20260505201930 64 286 15.0 29.0 0.00 0.00 0.00 56 1008.5
20260505201419 64 249 14.0 29.0 0.00 0.00 0.00 56 1008.5
20260505200657 63 253 13.0 24.0 0.00 0.00 0.00 57 1008.5
20260505200156 63 225 13.0 23.0 0.00 0.00 0.00 57 1008.6
20260505195925 63 214 13.0 25.0 0.00 0.00 0.00 57 1008.6
20260505195157 63 226 14.0 25.0 0.00 0.00 0.00 57 1008.5
20260505194658 63 245 13.0 25.0 0.00 0.00 0.00 57 1008.6
20260505194157 63 244 15.0 28.0 0.00 0.00 0.00 58 1008.8
20260505193657 62 262 17.0 30.0 0.00 0.00 0.00 58 1008.9
20260505193158 63 256 18.0 30.0 0.00 0.00 0.00 57 1009.3
20260505192918 63 263 17.0 29.0 0.00 0.00 0.00 57 1009.0